Stations météo

réclame
Mon MeteoGroup
L9F, Pays-Bas (6207): Température de l'air & dewpoint: 10.08.2018 21:00:00 - 16.08.2018 21:00:00 (CEST)L9F, Pays-Bas (6207): Vitesse du vent & gusts: 10.08.2018 21:00:00 - 16.08.2018 21:00:00 (CEST)L9F, Pays-Bas (6207): Direction du vent: 10.08.2018 21:00:00 - 16.08.2018 21:00:00 (CEST)L9F, Pays-Bas (6207): reduced air pressure: 10.08.2018 21:00:00 - 16.08.2018 21:00:00 (CEST)L9F, Pays-Bas (6207): visibility: 10.08.2018 21:00:00 - 16.08.2018 21:00:00 (CEST)
Date & Time tt [°C] td [°C] ff [km/h] ff [knt] fx [km/h] fx [knt] dd ppp [hPa] vv [km]
16.08.2018 21:00:00 18,2 13,6 41 22 43 23 SW 1013,9 10
16.08.2018 20:00:00 18,5 12,7 46 25 50 27 SW 1013,6 10
16.08.2018 19:00:00 18,9 14,0 42 23 43 23 SSW 1013,6 10
16.08.2018 18:00:00 17,8 13,8 31 17 32 18 SSW 1013,9 10
16.08.2018 17:00:00 16,7 13,3 29 16 36 19 SW 1013,8 10
16.08.2018 16:00:00 17,7 14,1 21 11 36 19 W 1013,9 10
16.08.2018 15:00:00 16,6 15,7 52 28 54 29 SW 1013,4 10
16.08.2018 14:00:00 18,6 16,6 54 29 54 29 SW 1013,1 8
16.08.2018 13:00:00 19,0 16,1 57 31 58 31 SW 1012,8 10
16.08.2018 12:00:00 19,1 16,2 55 30 54 29 SW 1012,9 10
16.08.2018 11:00:00 19,1 15,9 46 25 54 29 SW 1013,0 10
16.08.2018 10:00:00 18,9 16,0 50 27 47 25 SW 1012,9 10
16.08.2018 09:00:00 18,9 16,1 46 25 43 23 SW 1012,9 10
16.08.2018 08:00:00 19,0 16,6 44 24 43 23 SW 1013,5 10
16.08.2018 07:00:00 19,0 16,7 46 25 43 23 SW 1013,7 10
16.08.2018 06:00:00 19,0 16,8 42 23 43 23 SSW 1013,8 10
16.08.2018 05:00:00 19,1 17,0 46 25 47 25 SSW 1014,0 10
16.08.2018 04:00:00 19,2 16,6 46 25 43 23 SSW 1014,4 10
16.08.2018 03:00:00 19,1 16,2 46 25 47 25 SSW 1014,8 10
16.08.2018 02:00:00 19,1 16,2 48 26 50 27 SSW 1015,3 10
16.08.2018 01:00:00 19,4 16,6 44 24 50 27 SW 1015,7 10
16.08.2018 00:00:00 19,4 16,3 50 27 50 27 SW 1016,2 10
15.08.2018 23:00:00 19,5 16,0 52 28 50 27 SSW 1016,4 10
15.08.2018 22:00:00 19,1 16,3 46 25 43 23 SSW 1016,6 10
15.08.2018 21:00:00 18,9 16,0 42 23 40 21 SW 1016,6 10
15.08.2018 20:00:00 18,9 15,5 42 23 43 23 SW 1016,6 10
15.08.2018 19:00:00 18,9 15,4 42 23 47 25 SW 1016,7 10
15.08.2018 18:00:00 18,7 15,0 42 23 47 25 SW 1016,9 10
15.08.2018 17:00:00 18,8 15,7 42 23 43 23 SW 1017,1 10
15.08.2018 16:00:00 19,3 15,8 41 22 40 21 SW 1017,0 10
15.08.2018 15:00:00 19,3 16,9 31 17 36 19 SW 1017,5 10
15.08.2018 14:00:00 19,4 16,1 31 17 32 18 SW 1017,4 10
15.08.2018 13:00:00 19,2 17,0 24 13 25 14 SW 1017,3 10
15.08.2018 12:00:00 19,5 16,3 21 11 22 12 SSW 1017,4 10
15.08.2018 11:00:00 19,4 15,9 15 8 18 10 SW 1017,2 10
15.08.2018 10:00:00 19,2 15,7 13 7 18 10 WSW 1016,8 10
15.08.2018 09:00:00 19,0 15,8 15 8 14 8 W 1016,7 10
15.08.2018 08:00:00 19,1 16,1 13 7 18 10 W 1016,4 10
15.08.2018 07:00:00 19,0 16,1 16 9 22 12 W 1016,0 10
15.08.2018 06:00:00 19,2 16,7 22 12 25 14 WSW 1015,5 10
15.08.2018 05:00:00 19,3 16,2 28 15 29 16 SW 1015,8 10
15.08.2018 04:00:00 19,4 16,3 28 15 29 16 SW 1015,9 10
15.08.2018 03:00:00 19,4 16,0 29 16 36 19 WSW 1015,9 10
15.08.2018 02:00:00 19,6 15,3 29 16 36 19 WSW 1016,0 10
15.08.2018 01:00:00 19,0 15,5 29 16 29 16 WSW 1016,1 10
15.08.2018 00:00:00 18,5 15,5 26 14 29 16 WSW 1016,2 10
14.08.2018 23:00:00 18,3 14,9 24 13 25 14 W 1016,2 10
14.08.2018 22:00:00 18,2 15,2 26 14 25 14 W 1016,3 10
14.08.2018 21:00:00 18,4 15,6 24 13 25 14 WSW 1015,8 10
14.08.2018 20:00:00 18,2 15,0 21 11 25 14 WSW 1015,6 10
14.08.2018 19:00:00 18,1 14,2 21 11 22 12 W 1015,5 10
14.08.2018 18:00:00 18,0 14,2 21 11 22 12 W 1015,4 10
14.08.2018 17:00:00 17,9 14,2 28 15 32 18 W 1015,3 10
14.08.2018 16:00:00 18,1 13,9 31 17 36 19 WNW 1015,1 10
14.08.2018 15:00:00 18,0 13,5 37 20 40 21 WNW 1014,4 10
14.08.2018 14:00:00 17,9 13,4 41 22 43 23 WNW 1013,8 10
14.08.2018 13:00:00 18,0 13,8 42 23 43 23 WNW 1013,0 10
14.08.2018 12:00:00 18,0 13,7 44 24 43 23 WNW 1012,3 10
14.08.2018 11:00:00 18,0 13,7 48 26 47 25 WNW 1011,6 10
14.08.2018 10:00:00 18,0 13,7 48 26 50 27 NW 1010,9 10
14.08.2018 09:00:00 18,1 13,8 48 26 58 31 NW 1010,1 10
14.08.2018 08:00:00 18,2 14,3 55 30 58 31 NW 1009,3 10
14.08.2018 07:00:00 17,7 15,4 59 32 58 31 WNW 1008,4 10
14.08.2018 06:00:00 17,3 15,6 54 29 54 29 WNW 1007,7 10
14.08.2018 05:00:00 18,1 15,3 48 26 50 27 WNW 1007,3 10
14.08.2018 04:00:00 17,5 16,3 42 23 47 25 WNW 1007,0 10
14.08.2018 03:00:00 18,1 17,0 29 16 32 18 - 1006,7 10
14.08.2018 02:00:00 18,1 16,2 28 15 32 18 W 1006,5 10
14.08.2018 01:00:00 18,0 16,2 34 18 32 18 W 1006,5 10
14.08.2018 00:00:00 18,1 16,1 28 15 29 16 W 1006,3 10
13.08.2018 23:00:00 17,8 16,2 24 13 25 14 W 1006,2 10
13.08.2018 22:00:00 17,7 15,5 21 11 22 12 W 1006,0 10
13.08.2018 21:00:00 18,2 15,8 18 10 22 12 WNW 1005,8 10
13.08.2018 20:00:00 17,9 16,7 9 5 18 10 WSW 1005,4 10
13.08.2018 19:00:00 18,3 16,4 8 4 18 10 WSW 1005,1 10
13.08.2018 18:00:00 18,5 15,9 9 5 18 10 - 1005,2 10
13.08.2018 17:00:00 18,4 15,9 5 3 22 12 - 1005,3 10
13.08.2018 16:00:00 18,3 15,8 9 5 22 12 W 1005,2 10
13.08.2018 15:00:00 18,1 15,4 5 3 25 14 - 1005,3 10
13.08.2018 14:00:00 18,6 16,5 16 9 25 14 WNW 1005,3 10
13.08.2018 13:00:00 18,8 16,1 13 7 14 8 NNW 1005,3 10
13.08.2018 12:00:00 19,1 15,6 16 9 18 10 NW 1005,3 10
13.08.2018 11:00:00 19,3 15,9 5 3 22 12 - 1005,3 10
13.08.2018 10:00:00 19,2 15,8 4 2 14 8 - 1005,6 10
13.08.2018 09:00:00 19,3 13,9 4 2 14 8 - 1005,7 10
13.08.2018 08:00:00 19,0 15,9 22 12 29 16 SSW 1005,6 10
13.08.2018 07:00:00 20,7 14,3 29 16 29 16 S 1005,7 10
13.08.2018 06:00:00 20,3 15,8 15 8 18 10 SSE 1005,7 10
13.08.2018 05:00:00 20,2 15,2 15 8 18 10 SSE 1006,3 10
13.08.2018 04:00:00 20,2 15,7 18 10 18 10 SSE 1006,5 10
13.08.2018 03:00:00 19,9 16,0 18 10 18 10 S 1007,6 10
13.08.2018 02:00:00 20,1 16,7 13 7 11 6 S 1008,1 10
13.08.2018 01:00:00 20,0 16,0 13 7 14 8 SSW 1008,4 10
13.08.2018 00:00:00 20,1 15,8 16 9 18 10 SW 1008,7 10
12.08.2018 23:00:00 20,3 15,6 22 12 29 16 WSW 1009,2 10
12.08.2018 22:00:00 20,8 14,8 34 18 32 18 SW 1009,6 10
12.08.2018 21:00:00 20,8 15,4 39 21 36 19 SW 1009,7 10
12.08.2018 20:00:00 20,9 15,4 41 22 43 23 SW 1009,9 10
12.08.2018 19:00:00 20,9 15,4 46 25 47 25 SW 1010,4 10
12.08.2018 18:00:00 20,8 15,1 46 25 50 27 SW 1010,8 10
12.08.2018 17:00:00 20,7 15,1 52 28 54 29 SW 1011,1 10
12.08.2018 16:00:00 20,4 15,4 54 29 54 29 SW 1011,7 10
12.08.2018 15:00:00 20,3 15,3 55 30 54 29 SW 1012,0 10
12.08.2018 14:00:00 20,2 15,4 55 30 58 31 SW 1012,2 10
12.08.2018 13:00:00 20,1 15,2 55 30 58 31 SSW 1012,7 10
12.08.2018 12:00:00 19,6 14,8 50 27 50 27 SSW 1012,9 10
12.08.2018 11:00:00 18,7 14,4 44 24 47 25 SSW 1013,3 10
12.08.2018 10:00:00 17,9 14,9 41 22 43 23 S 1014,1 10
12.08.2018 09:00:00 16,0 15,0 42 23 40 21 S 1014,8 3,1
12.08.2018 08:00:00 15,8 13,0 41 22 43 23 S 1015,6 10
12.08.2018 07:00:00 17,6 11,0 35 19 40 21 S 1015,8 10
12.08.2018 06:00:00 17,5 10,9 37 20 40 21 S 1016,4 10
12.08.2018 05:00:00 17,8 12,4 34 18 36 19 SSW 1017,0 10
12.08.2018 04:00:00 17,6 11,3 34 18 36 19 SSW 1017,7 10
12.08.2018 03:00:00 17,7 9,8 29 16 32 18 SSW 1018,2 10
12.08.2018 02:00:00 17,3 10,5 26 14 29 16 SW 1018,9 10
12.08.2018 01:00:00 17,2 9,8 26 14 25 14 SW 1019,4 10
12.08.2018 00:00:00 17,0 10,2 26 14 29 16 SW 1019,9 10
11.08.2018 23:00:00 16,9 10,2 26 14 29 16 WSW 1020,5 10
11.08.2018 22:00:00 16,8 8,4 26 14 25 14 WSW 1020,8 10
11.08.2018 21:00:00 16,6 9,2 26 14 29 16 WSW 1021,0 10
11.08.2018 20:00:00 16,6 10,6 26 14 25 14 WSW 1021,0 10
11.08.2018 19:00:00 16,7 10,6 26 14 25 14 W 1021,4 10
11.08.2018 18:00:00 16,6 10,7 24 13 29 16 W 1021,5 10
11.08.2018 17:00:00 16,5 11,4 28 15 32 18 W 1021,4 10
11.08.2018 16:00:00 16,7 12,0 34 18 32 18 W 1021,2 10
11.08.2018 15:00:00 16,8 11,0 29 16 36 19 W 1021,0 10
11.08.2018 14:00:00 16,9 10,8 35 19 40 21 W 1020,9 10
11.08.2018 13:00:00 16,8 11,0 34 18 43 23 W 1020,3 10
11.08.2018 12:00:00 16,7 11,3 35 19 36 19 W 1020,2 10
11.08.2018 11:00:00 16,7 11,6 35 19 54 29 W 1019,7 10
11.08.2018 10:00:00 16,6 10,5 37 20 47 25 W 1019,0 10
11.08.2018 09:00:00 16,5 11,2 35 19 43 23 W 1018,4 10
11.08.2018 08:00:00 16,3 10,4 35 19 43 23 W 1017,9 10
11.08.2018 07:00:00 15,8 10,6 39 21 43 23 W 1017,2 10
11.08.2018 06:00:00 15,4 9,3 39 21 40 21 W 1016,8 10
11.08.2018 05:00:00 15,2 8,2 34 18 47 25 W 1016,4 10
11.08.2018 04:00:00 15,1 9,9 39 21 47 25 - 1016,6 10
11.08.2018 03:00:00 15,5 10,0 41 22 50 27 - 1016,4 10
11.08.2018 02:00:00 16,2 10,7 35 19 36 19 W 1016,4 10
11.08.2018 01:00:00 16,0 10,1 35 19 36 19 W 1016,1 10
11.08.2018 00:00:00 16,1 10,2 35 19 40 21 W 1015,8 10
10.08.2018 23:00:00 15,8 11,7 29 16 32 18 WSW 1015,5 10
10.08.2018 22:00:00 14,5 12,7 21 11 79 43 WNW 1015,0 10
10.08.2018 21:00:00 14,1 12,9 15 8 43 23 WSW 1014,8 4,6

tt = Température de l'air
td = dewpoint
ff = Vitesse du vent
fx = gusts
dd = Direction du vent
ppp = reduced air pressure
vv = visibility

stations d'obs. à proximité